一网星座-0120星 (ONEWEB-0120 )

导读

ONEWEB-0210卫星由英国发射于2020年12月18日,隶属于OneWeb星座系统,该系统旨在构建全球低轨卫星互联网络,为全球偏远地区、海洋等缺乏地面通信基础设施覆盖的区域提供高速宽带接入服务。该卫星入轨后承担通信转发任务,助力OneWeb实现全球无缝覆盖的通信布局。

基本信息
目录编号:
47266
目录名称:
ONEWEB-0120
国际标识:
2020-100J
轨道中心:
EARTH
卫星名称:
一网星座-0120星
卫星全名:
一网星座-0120星 (ONEWEB-0120 )
卫星状态:
在轨 (已飞行2093 天)
发射日期:
2020-12-18 UTC
国别 :
英国 (GB)
星等 :
--
该卫星已列入 空间交会检测服务 Space Conjunction Data Service (SCDS) ,当前飞行风险评估等级: 无高风险
轨道信息
数据来源 国际轨道数据
星历时间: 2026-09-11T02:24:36+0800
17小时前
查看轨道信息
半长轴: 7591.865km
偏心率: 0.0001703
轨道倾角: 87.898°
近地点辐角 96.002°
升交点赤经 333.676°
平近点角 264.130°
近地点: 1212.435km
远地点: 1215.021km
周期: 109.719分钟
每日圈数: 13.124418
详细信息
平衡模式:
三轴稳定
覆盖范围:
全球
运营商:
一网卫星公司
运营商所在国:
英国
制造商(研发单位):
一网卫星公司
制造商所在国:
英国
使用方式:
暂无
卫星简介
OneWeb卫星网络由648颗重约125公斤的微型卫星组成,运行在1200公里的轨道上。 每颗卫星都能够提供至少每秒8千兆位的吞吐量,以使用其高吞吐量的Ku频段有效载荷为家庭和移动平台提供互联网接入。该卫星仍在工作。
2D轨道图
3D轨道图
轨道高度分析图
轨道倾角分析图
轨道综合分析图
查看轨道综合分析图
交会数据列表
事件ID 空间交会对象 最接近时刻(TCA) 交会距离 交会风险概率(CRP) 交会风险指数(CRI) 操作
CDM_260912-121000-518804-726624
2026-09-12T
12:10:15+0000
2.086 km
极远距离
2.148468E-6 低风险 0.42
与全量物体交会距离演化趋势
与全量物体交会风险概率演化趋势